Hourly Data Report for September 05, 2016

SHEARWATER RCS
NOVA SCOTIA

44°37'47.000" N
63°30'48.000" W
24.00 m
8205092
71264
AAW

Download Data

Hourly Data (September 2016)
Hourly Data Report for September 5, 2016
TIME Temp Definition
°C
Dew Point Definition
°C
Rel Hum Definition
%
Wind Dir Definition
10's deg

Wind Spd Definition
km/h
Visibility Definition
km
Stn Press Definition
kPa
Hmdx Definition


Wind Chill Definition


Weather Definition


00:00 11.7 9.8 88 0 1   102.52     LegendNANA
01:00 11.4 9.9 90 7 5   102.51     LegendNANA
02:00 11.8 9.8 88 16 1   102.49     LegendNANA
03:00 10.7 9.3 91   0   102.46     LegendNANA
04:00 10.5 9.2 92 32 1   102.52     LegendNANA
05:00 10.2 9.1 93   0   102.52     LegendNANA
06:00 11.3 10.0 92 4 5   102.49     LegendNANA
07:00 13.3 11.2 87 3 7   102.48     LegendNANA
08:00 14.8 11.4 80 5 10   102.49     LegendNANA
09:00 17.2 11.8 71 9 7   102.51     LegendNANA
10:00 18.9 11.3 61 12 12   102.50     LegendNANA
11:00 18.6 10.5 59 9 13   102.47     LegendNANA
12:00 19.7 12.1 61 12 18   102.43     LegendNANA
13:00 19.9 12.9 64 13 14   102.39     LegendNANA
14:00 20.0 12.9 64 11 12   102.34     LegendNANA
15:00 21.1 13.5 62 11 11   102.28     LegendNANA
16:00 20.0 14.2 69 9 13   102.23     LegendNANA
17:00 18.4 14.3 77 8 13   102.21     LegendNANA
18:00 18.1 14.7 81 7 12   102.18     LegendNANA
19:00 17.3 14.8 85 6 9   102.17     LegendNANA
20:00 17.2 15.1 88 6 10   102.18     LegendNANA
21:00 17.5 15.6 89 6 12   102.16     LegendNANA
22:00 17.9 15.9 88 6 10   102.14     LegendNANA
23:00 18.5 16.4 88 6 11   102.11     LegendNANA

Notes on Data Quality.

Legend

  • E = Estimated
  • M = Missing
  • NA = Not Available*
  • [empty] = Indicates an unobserved value
Date modified: